Time,TemperatureF,DewpointF,PressureIn,WindDirection,WindDirectionDegrees,WindSpeedMPH,WindSpeedGustMPH,Humidity,HourlyPrecipIn,Conditions,Clouds,dailyrainin,SoftwareType,DateUTC
2013-06-23 00:09:00,73.5,73.0,30.17,NW,321,0.0,0.0,99,0.00,,,0.00,weatherlink.com 1.10,2013-06-23 04:09:00,
2013-06-23 00:24:00,73.1,73.0,30.17,NW,321,0.0,0.0,98,0.00,,,0.00,weatherlink.com 1.10,2013-06-23 04:24:00,
2013-06-23 00:39:00,72.9,73.0,30.17,NW,321,0.0,0.0,99,0.00,,,0.00,weatherlink.com 1.10,2013-06-23 04:39:00,
2013-06-23 00:54:00,72.8,73.0,30.17,NW,321,0.0,0.0,99,0.00,,,0.00,weatherlink.com 1.10,2013-06-23 04:54:00,
2013-06-23 01:09:00,72.6,72.0,30.17,NW,321,0.0,0.0,99,0.00,,,0.00,weatherlink.com 1.10,2013-06-23 05:09:00,
2013-06-23 01:24:00,72.6,72.0,30.17,NW,321,0.0,0.0,99,0.00,,,0.00,weatherlink.com 1.10,2013-06-23 05:24:00,
2013-06-23 01:39:00,72.5,72.0,30.16,NW,321,0.0,0.0,99,0.00,,,0.00,weatherlink.com 1.10,2013-06-23 05:39:00,
2013-06-23 01:54:00,72.2,72.0,30.16,NW,321,0.0,0.0,99,0.00,,,0.00,weatherlink.com 1.10,2013-06-23 05:54:00,
2013-06-23 02:09:00,72.2,72.0,30.16,NW,321,0.0,0.0,99,0.00,,,0.00,weatherlink.com 1.10,2013-06-23 06:09:00,
2013-06-23 02:24:00,72.0,72.0,30.16,NW,321,0.0,0.0,99,0.00,,,0.00,weatherlink.com 1.10,2013-06-23 06:24:00,
2013-06-23 02:39:00,71.9,72.0,30.16,NW,321,0.0,0.0,99,0.00,,,0.00,weatherlink.com 1.10,2013-06-23 06:39:00,
2013-06-23 02:54:00,71.8,72.0,30.16,NW,321,0.0,0.0,99,0.00,,,0.00,weatherlink.com 1.10,2013-06-23 06:54:00,
2013-06-23 03:09:00,72.0,72.0,30.16,NW,321,0.0,0.0,99,0.00,,,0.00,weatherlink.com 1.10,2013-06-23 07:09:00,
2013-06-23 03:24:00,71.7,71.0,30.16,NW,321,0.0,0.0,99,0.00,,,0.00,weatherlink.com 1.10,2013-06-23 07:24:00,
2013-06-23 03:39:00,71.5,71.0,30.16,NW,321,0.0,0.0,99,0.00,,,0.00,weatherlink.com 1.10,2013-06-23 07:39:00,
2013-06-23 03:54:00,71.4,71.0,30.16,NW,321,0.0,0.0,99,0.00,,,0.00,weatherlink.com 1.10,2013-06-23 07:54:00,
2013-06-23 04:09:00,71.4,71.0,30.16,NW,321,0.0,0.0,99,0.00,,,0.00,weatherlink.com 1.10,2013-06-23 08:09:00,
2013-06-23 04:24:00,71.4,71.0,30.16,NW,321,0.0,0.0,99,0.00,,,0.00,weatherlink.com 1.10,2013-06-23 08:24:00,
2013-06-23 04:39:00,71.2,71.0,30.16,NW,321,0.0,0.0,99,0.00,,,0.00,weatherlink.com 1.10,2013-06-23 08:39:00,
2013-06-23 04:54:00,71.1,71.0,30.16,NW,321,0.0,0.0,99,0.00,,,0.00,weatherlink.com 1.10,2013-06-23 08:54:00,
2013-06-23 05:09:00,70.9,71.0,30.16,NW,321,0.0,0.0,99,0.00,,,0.00,weatherlink.com 1.10,2013-06-23 09:09:00,
2013-06-23 05:24:00,70.8,71.0,30.16,NW,321,0.0,0.0,99,0.00,,,0.00,weatherlink.com 1.10,2013-06-23 09:24:00,
2013-06-23 05:39:00,70.6,70.0,30.16,NW,321,0.0,0.0,99,0.00,,,0.00,weatherlink.com 1.10,2013-06-23 09:39:00,
2013-06-23 05:54:00,70.3,70.0,30.16,NW,321,0.0,0.0,99,0.00,,,0.00,weatherlink.com 1.10,2013-06-23 09:54:00,
2013-06-23 06:09:00,70.3,70.0,30.16,NW,321,0.0,0.0,99,0.00,,,0.00,weatherlink.com 1.10,2013-06-23 10:09:00,
2013-06-23 06:24:00,70.3,70.0,30.16,NW,321,0.0,0.0,99,0.00,,,0.00,weatherlink.com 1.10,2013-06-23 10:24:00,
2013-06-23 06:39:00,70.4,70.0,30.16,NW,321,0.0,0.0,99,0.00,,,0.00,weatherlink.com 1.10,2013-06-23 10:39:00,
2013-06-23 06:54:00,70.8,71.0,30.17,NW,321,0.0,0.0,100,0.00,,,0.00,weatherlink.com 1.10,2013-06-23 10:54:00,
2013-06-23 07:09:00,71.1,71.0,30.17,NW,321,0.0,0.0,100,0.00,,,0.00,weatherlink.com 1.10,2013-06-23 11:09:00,
2013-06-23 07:24:00,71.3,71.0,30.18,NW,321,0.0,0.0,100,0.00,,,0.00,weatherlink.com 1.10,2013-06-23 11:24:00,
2013-06-23 07:39:00,71.7,72.0,30.18,NW,321,0.0,0.0,100,0.00,,,0.00,weatherlink.com 1.10,2013-06-23 11:39:00,
2013-06-23 07:54:00,72.9,73.0,30.19,NW,321,0.0,0.0,100,0.00,,,0.00,weatherlink.com 1.10,2013-06-23 11:54:00,
2013-06-23 08:09:00,73.9,74.0,30.19,NW,321,0.0,0.0,100,0.00,,,0.00,weatherlink.com 1.10,2013-06-23 12:09:00,
2013-06-23 08:25:00,77.0,77.0,30.20,NW,321,0.0,0.0,100,0.00,,,0.00,weatherlink.com 1.10,2013-06-23 12:25:00,
2013-06-23 08:40:00,78.9,78.0,30.20,NW,321,0.0,0.0,97,0.00,,,0.00,weatherlink.com 1.10,2013-06-23 12:40:00,
2013-06-23 08:55:00,80.8,78.0,30.20,ESE,120,0.0,1.0,92,0.00,,,0.00,weatherlink.com 1.10,2013-06-23 12:55:00,
2013-06-23 09:10:00,82.2,78.0,30.21,SSW,203,1.0,1.0,87,0.00,,,0.00,weatherlink.com 1.10,2013-06-23 13:10:00,
2013-06-23 09:25:00,83.0,79.0,30.21,North,355,0.0,1.0,86,0.00,,,0.00,weatherlink.com 1.10,2013-06-23 13:25:00,
2013-06-23 09:40:00,82.9,77.0,30.21,SSW,202,0.0,1.0,82,0.00,,,0.00,weatherlink.com 1.10,2013-06-23 13:40:00,
2013-06-23 09:55:00,82.8,77.0,30.21,SE,134,0.0,2.0,83,0.00,,,0.00,weatherlink.com 1.10,2013-06-23 13:55:00,
2013-06-23 10:10:00,83.9,77.0,30.21,East,86,1.0,1.0,80,0.00,,,0.00,weatherlink.com 1.10,2013-06-23 14:10:00,
2013-06-23 10:25:00,84.1,77.0,30.21,East,99,0.0,3.0,79,0.00,,,0.00,weatherlink.com 1.10,2013-06-23 14:25:00,
2013-06-23 10:40:00,85.6,76.0,30.20,NE,41,2.0,2.0,74,0.00,,,0.00,weatherlink.com 1.10,2013-06-23 14:40:00,
2013-06-23 10:55:00,86.2,76.0,30.20,East,94,0.0,3.0,71,0.00,,,0.00,weatherlink.com 1.10,2013-06-23 14:55:00,
2013-06-23 11:10:00,86.7,76.0,30.20,SW,228,0.0,2.0,71,0.00,,,0.00,weatherlink.com 1.10,2013-06-23 15:10:00,
2013-06-23 11:25:00,87.2,75.0,30.20,NNW,341,0.0,4.0,68,0.00,,,0.00,weatherlink.com 1.10,2013-06-23 15:25:00,
2013-06-23 11:40:00,87.5,77.0,30.20,SE,134,1.0,3.0,71,0.00,,,0.00,weatherlink.com 1.10,2013-06-23 15:40:00,
2013-06-23 11:55:00,87.3,77.0,30.20,NNE,22,0.0,1.0,72,0.00,,,0.00,weatherlink.com 1.10,2013-06-23 15:55:00,
2013-06-23 12:10:00,88.3,75.0,30.20,SE,143,1.0,2.0,65,0.00,,,0.00,weatherlink.com 1.10,2013-06-23 16:10:00,
2013-06-23 12:25:00,87.1,74.0,30.20,NE,50,0.0,2.0,66,0.00,,,0.00,weatherlink.com 1.10,2013-06-23 16:25:00,
2013-06-23 12:40:00,87.6,73.0,30.20,North,6,0.0,3.0,63,0.00,,,0.00,weatherlink.com 1.10,2013-06-23 16:40:00,
2013-06-23 12:55:00,85.9,77.0,30.19,SE,143,0.0,3.0,74,0.00,,,0.00,weatherlink.com 1.10,2013-06-23 16:55:00,
2013-06-23 13:10:00,86.2,76.0,30.19,SSE,158,1.0,3.0,72,0.00,,,0.00,weatherlink.com 1.10,2013-06-23 17:10:00,
2013-06-23 13:25:00,87.0,77.0,30.19,East,96,0.0,3.0,71,0.00,,,0.00,weatherlink.com 1.10,2013-06-23 17:25:00,
2013-06-23 13:40:00,84.9,77.0,30.18,SSW,205,0.0,2.0,78,0.00,,,0.00,weatherlink.com 1.10,2013-06-23 17:40:00,
2013-06-23 13:55:00,84.1,77.0,30.18,SSE,167,0.0,3.0,79,0.00,,,0.00,weatherlink.com 1.10,2013-06-23 17:55:00,
2013-06-23 14:10:00,86.7,78.0,30.18,ENE,77,2.0,5.0,76,0.00,,,0.00,weatherlink.com 1.10,2013-06-23 18:10:00,
2013-06-23 14:25:00,87.8,76.0,30.18,ESE,108,2.0,3.0,68,0.00,,,0.00,weatherlink.com 1.10,2013-06-23 18:25:00,
2013-06-23 14:40:00,87.4,77.0,30.17,SSE,150,2.0,5.0,70,0.00,,,0.00,weatherlink.com 1.10,2013-06-23 18:40:00,
2013-06-23 14:55:00,88.3,76.0,30.17,SSE,156,2.0,5.0,68,0.00,,,0.00,weatherlink.com 1.10,2013-06-23 18:55:00,
2013-06-23 15:10:00,86.4,74.0,30.18,SE,128,2.0,3.0,67,0.00,,,0.00,weatherlink.com 1.10,2013-06-23 19:10:00,
2013-06-23 15:25:00,83.8,76.0,30.17,SE,146,1.0,4.0,76,0.00,,,0.00,weatherlink.com 1.10,2013-06-23 19:25:00,
2013-06-23 15:40:00,83.0,76.0,30.17,SE,146,0.0,1.0,79,0.00,,,0.00,weatherlink.com 1.10,2013-06-23 19:40:00,
2013-06-23 15:55:00,82.1,75.0,30.16,SE,132,1.0,5.0,78,0.00,,,0.00,weatherlink.com 1.10,2013-06-23 19:55:00,
2013-06-23 16:10:00,81.7,74.0,30.16,SE,134,1.0,1.0,78,0.00,,,0.00,weatherlink.com 1.10,2013-06-23 20:10:00,
2013-06-23 16:25:00,81.5,74.0,30.16,SE,136,0.0,1.0,79,0.00,,,0.00,weatherlink.com 1.10,2013-06-23 20:25:00,
2013-06-23 16:40:00,81.4,75.0,30.16,SE,136,0.0,1.0,82,0.00,,,0.00,weatherlink.com 1.10,2013-06-23 20:40:00,
2013-06-23 16:55:00,82.4,76.0,30.15,SW,214,0.0,3.0,81,0.00,,,0.00,weatherlink.com 1.10,2013-06-23 20:55:00,
2013-06-23 17:10:00,83.4,76.0,30.14,SE,143,0.0,3.0,79,0.00,,,0.00,weatherlink.com 1.10,2013-06-23 21:10:00,
2013-06-23 17:25:00,83.1,74.0,30.14,ESE,103,0.0,4.0,75,0.00,,,0.00,weatherlink.com 1.10,2013-06-23 21:25:00,
2013-06-23 17:40:00,83.3,75.0,30.14,ESE,115,0.0,4.0,77,0.00,,,0.00,weatherlink.com 1.10,2013-06-23 21:40:00,
2013-06-23 17:55:00,83.4,75.0,30.15,ENE,58,0.0,4.0,76,0.00,,,0.00,weatherlink.com 1.10,2013-06-23 21:55:00,
2013-06-23 18:10:00,82.4,75.0,30.16,SE,133,0.0,2.0,77,0.00,,,0.00,weatherlink.com 1.10,2013-06-23 22:10:00,
2013-06-23 18:25:00,81.9,75.0,30.16,WSW,240,1.0,3.0,79,0.00,,,0.00,weatherlink.com 1.10,2013-06-23 22:25:00,
2013-06-23 18:40:00,81.4,75.0,30.17,SSW,210,0.0,1.0,82,0.00,,,0.00,weatherlink.com 1.10,2013-06-23 22:40:00,
2013-06-23 18:55:00,80.9,75.0,30.17,SE,133,1.0,3.0,83,0.00,,,0.00,weatherlink.com 1.10,2013-06-23 22:55:00,
2013-06-23 19:10:00,80.2,75.0,30.17,SE,136,0.0,3.0,85,0.00,,,0.00,weatherlink.com 1.10,2013-06-23 23:10:00,
2013-06-23 19:26:00,79.6,75.0,30.17,ESE,103,0.0,4.0,85,0.00,,,0.00,weatherlink.com 1.10,2013-06-23 23:26:00,
2013-06-23 19:41:00,79.1,75.0,30.17,SE,131,0.0,1.0,87,0.00,,,0.00,weatherlink.com 1.10,2013-06-23 23:41:00,
2013-06-23 19:56:00,78.6,75.0,30.17,SE,127,0.0,1.0,87,0.00,,,0.00,weatherlink.com 1.10,2013-06-23 23:56:00,
2013-06-23 20:11:00,78.2,74.0,30.17,SE,130,0.0,1.0,88,0.00,,,0.00,weatherlink.com 1.10,2013-06-24 00:11:00,
2013-06-23 20:26:00,77.7,75.0,30.17,NNW,345,1.0,1.0,90,0.00,,,0.00,weatherlink.com 1.10,2013-06-24 00:26:00,
2013-06-23 20:41:00,77.3,75.0,30.17,SE,130,0.0,1.0,91,0.00,,,0.00,weatherlink.com 1.10,2013-06-24 00:41:00,
2013-06-23 20:56:00,76.9,75.0,30.18,SSE,148,0.0,0.0,92,0.00,,,0.00,weatherlink.com 1.10,2013-06-24 00:56:00,
2013-06-23 21:11:00,76.6,75.0,30.18,SSE,148,0.0,0.0,93,0.00,,,0.00,weatherlink.com 1.10,2013-06-24 01:11:00,
2013-06-23 21:26:00,76.1,74.0,30.19,SSE,148,0.0,0.0,94,0.00,,,0.00,weatherlink.com 1.10,2013-06-24 01:26:00,
2013-06-23 21:41:00,76.2,75.0,30.20,ENE,57,0.0,1.0,95,0.00,,,0.00,weatherlink.com 1.10,2013-06-24 01:41:00,
2013-06-23 21:56:00,76.1,75.0,30.20,ENE,57,0.0,0.0,96,0.00,,,0.00,weatherlink.com 1.10,2013-06-24 01:56:00,
2013-06-23 22:11:00,75.9,75.0,30.21,ENE,57,0.0,0.0,96,0.00,,,0.00,weatherlink.com 1.10,2013-06-24 02:11:00,
2013-06-23 22:26:00,76.0,75.0,30.20,ENE,57,0.0,0.0,96,0.00,,,0.00,weatherlink.com 1.10,2013-06-24 02:26:00,
2013-06-23 22:41:00,76.0,75.0,30.20,ENE,57,0.0,1.0,97,0.00,,,0.00,weatherlink.com 1.10,2013-06-24 02:41:00,
2013-06-23 22:56:00,75.9,75.0,30.20,ENE,57,0.0,0.0,97,0.00,,,0.00,weatherlink.com 1.10,2013-06-24 02:56:00,
2013-06-23 23:11:00,75.9,75.0,30.20,ESE,110,0.0,1.0,97,0.00,,,0.00,weatherlink.com 1.10,2013-06-24 03:11:00,
2013-06-23 23:26:00,76.1,75.0,30.20,ESE,106,1.0,1.0,97,0.00,,,0.00,weatherlink.com 1.10,2013-06-24 03:26:00,
2013-06-23 23:41:00,76.3,75.0,30.19,ESE,102,0.0,1.0,97,0.00,,,0.00,weatherlink.com 1.10,2013-06-24 03:41:00,
2013-06-23 23:56:00,76.2,75.0,30.19,ESE,102,0.0,0.0,97,0.00,,,0.00,weatherlink.com 1.10,2013-06-24 03:56:00,